Time,TemperatureF,DewpointF,PressureIn,WindDirection,WindDirectionDegrees,WindSpeedMPH,WindSpeedGustMPH,Humidity,HourlyPrecipIn,Conditions,Clouds,dailyrainin,SoftwareType,DateUTC
2013-07-16 00:00:00,70.0,63.5,30.11,South,184,0.0,2.0,80,0.00,,BKN110,0.36,VWS V14.01,2013-07-16 05:00:00,
2013-07-16 00:01:00,70.0,63.5,30.11,South,184,0.0,0.0,80,0.00,,BKN110,0.00,VWS V14.01,2013-07-16 05:01:00,
2013-07-16 00:05:00,70.0,63.9,30.11,ESE,116,0.0,1.0,81,0.00,,BKN110,0.00,VWS V14.01,2013-07-16 05:05:00,
2013-07-16 00:06:00,70.0,63.9,30.11,ESE,116,0.0,0.0,81,0.00,,BKN110,0.00,VWS V14.01,2013-07-16 05:06:00,
2013-07-16 00:10:00,69.8,63.7,30.11,South,190,2.0,2.0,81,0.00,,BKN110,0.00,VWS V14.01,2013-07-16 05:10:00,
2013-07-16 00:11:00,69.8,63.7,30.11,South,172,2.0,2.0,81,0.00,,BKN110,0.00,VWS V14.01,2013-07-16 05:11:00,
2013-07-16 00:15:00,69.7,63.6,30.12,SSE,167,0.0,2.0,81,0.00,,BKN110,0.00,VWS V14.01,2013-07-16 05:15:00,
2013-07-16 00:16:00,69.7,63.6,30.12,SSE,167,0.0,0.0,81,0.00,,BKN110,0.00,VWS V14.01,2013-07-16 05:16:00,
2013-07-16 00:20:00,69.5,63.4,30.12,South,169,0.0,1.0,81,0.00,,BKN110,0.00,VWS V14.01,2013-07-16 05:20:00,
2013-07-16 00:21:00,69.5,63.4,30.12,South,170,0.0,0.0,81,0.00,,BKN110,0.00,VWS V14.01,2013-07-16 05:21:00,
2013-07-16 00:25:00,69.4,63.7,30.12,South,170,0.0,0.0,82,0.00,,BKN110,0.00,VWS V14.01,2013-07-16 05:25:00,
2013-07-16 00:26:00,69.4,63.7,30.12,South,170,0.0,0.0,82,0.00,,BKN110,0.00,VWS V14.01,2013-07-16 05:26:00,
2013-07-16 00:30:00,69.3,63.6,30.11,South,169,0.0,1.0,82,0.00,,BKN110,0.00,VWS V14.01,2013-07-16 05:30:00,
2013-07-16 00:31:00,69.3,63.6,30.12,South,169,0.0,0.0,82,0.00,,BKN110,0.00,VWS V14.01,2013-07-16 05:31:00,
2013-07-16 00:35:00,69.4,63.7,30.11,SE,131,0.0,2.0,82,0.00,,BKN110,0.00,VWS V14.01,2013-07-16 05:35:00,
2013-07-16 00:36:00,69.4,63.7,30.11,SE,131,0.0,0.0,82,0.00,,BKN110,0.00,VWS V14.01,2013-07-16 05:36:00,
2013-07-16 00:40:00,69.5,63.8,30.12,SSE,159,0.0,0.0,82,0.00,,BKN110,0.00,VWS V14.01,2013-07-16 05:40:00,
2013-07-16 00:41:00,69.5,63.8,30.12,SSE,159,0.0,0.0,82,0.00,,BKN110,0.00,VWS V14.01,2013-07-16 05:41:00,
2013-07-16 00:45:00,69.6,63.9,30.12,SE,140,0.0,2.0,82,0.00,,BKN110,0.00,VWS V14.01,2013-07-16 05:45:00,
2013-07-16 00:46:00,69.6,63.9,30.12,SE,139,0.0,0.0,82,0.00,,BKN110,0.00,VWS V14.01,2013-07-16 05:46:00,
2013-07-16 00:50:00,69.7,64.0,30.12,SE,139,0.0,1.0,82,0.00,,BKN110,0.00,VWS V14.01,2013-07-16 05:50:00,
2013-07-16 00:51:00,69.7,64.0,30.12,SE,141,0.0,0.0,82,0.00,,BKN110,0.00,VWS V14.01,2013-07-16 05:51:00,
2013-07-16 00:55:00,69.7,64.0,30.12,SSE,152,0.0,2.0,82,0.00,,BKN110,0.00,VWS V14.01,2013-07-16 05:55:00,
2013-07-16 00:56:00,69.8,64.1,30.12,SSE,152,1.0,1.0,82,0.00,,BKN110,0.00,VWS V14.01,2013-07-16 05:56:00,
2013-07-16 01:00:00,69.8,64.1,30.12,SSW,208,1.0,2.0,82,0.00,,BKN110,0.00,VWS V14.01,2013-07-16 06:00:00,
2013-07-16 01:01:00,69.8,64.1,30.12,SSW,207,1.0,1.0,82,0.00,,BKN110,0.00,VWS V14.01,2013-07-16 06:01:00,
2013-07-16 01:05:00,69.7,63.6,30.12,South,187,0.0,1.0,81,0.00,,BKN110,0.00,VWS V14.01,2013-07-16 06:05:00,
2013-07-16 01:06:00,69.7,63.6,30.12,South,187,0.0,0.0,81,0.00,,BKN110,0.00,VWS V14.01,2013-07-16 06:06:00,
2013-07-16 01:10:00,69.6,63.9,30.12,South,182,0.0,0.0,82,0.00,,BKN250,0.00,VWS V14.01,2013-07-16 06:10:00,
2013-07-16 01:11:00,69.6,63.9,30.12,South,183,0.0,0.0,82,0.00,,BKN110,0.00,VWS V14.01,2013-07-16 06:11:00,
2013-07-16 01:15:00,69.5,63.8,30.12,South,183,0.0,0.0,82,0.00,,BKN250,0.00,VWS V14.01,2013-07-16 06:15:00,
2013-07-16 01:16:00,69.5,63.8,30.12,South,183,0.0,0.0,82,0.00,,BKN110,0.00,VWS V14.01,2013-07-16 06:16:00,
2013-07-16 01:20:00,69.5,63.8,30.12,SSW,203,1.0,2.0,82,0.00,,BKN250,0.00,VWS V14.01,2013-07-16 06:20:00,
2013-07-16 01:21:00,69.5,63.8,30.12,South,187,1.0,2.0,82,0.00,,BKN110,0.00,VWS V14.01,2013-07-16 06:21:00,
2013-07-16 01:25:00,69.4,63.7,30.12,South,177,0.0,2.0,82,0.00,,BKN250,0.00,VWS V14.01,2013-07-16 06:25:00,
2013-07-16 01:26:00,69.4,63.7,30.12,South,177,0.0,0.0,82,0.00,,BKN110,0.00,VWS V14.01,2013-07-16 06:26:00,
2013-07-16 01:30:00,69.4,64.0,30.12,South,187,0.0,0.0,83,0.00,,BKN250,0.00,VWS V14.01,2013-07-16 06:30:00,
2013-07-16 01:31:00,69.4,64.0,30.12,South,188,0.0,0.0,83,0.00,,BKN110,0.00,VWS V14.01,2013-07-16 06:31:00,
2013-07-16 01:35:00,69.2,63.8,30.12,South,187,0.0,0.0,83,0.00,,BKN250,0.00,VWS V14.01,2013-07-16 06:35:00,
2013-07-16 01:36:00,69.2,63.8,30.12,South,187,0.0,0.0,83,0.00,,OVC120,0.00,VWS V14.01,2013-07-16 06:36:00,
2013-07-16 01:40:00,69.1,63.7,30.12,South,187,0.0,0.0,83,0.00,,BKN250,0.00,VWS V14.01,2013-07-16 06:40:00,
2013-07-16 01:41:00,69.1,63.7,30.12,South,187,0.0,0.0,83,0.00,,OVC120,0.00,VWS V14.01,2013-07-16 06:41:00,
2013-07-16 01:45:00,69.0,64.0,30.12,South,187,0.0,0.0,84,0.00,,BKN250,0.00,VWS V14.01,2013-07-16 06:45:00,
2013-07-16 01:46:00,69.0,64.0,30.12,South,188,0.0,0.0,84,0.00,,OVC120,0.00,VWS V14.01,2013-07-16 06:46:00,
2013-07-16 01:50:00,68.7,63.7,30.11,South,187,0.0,0.0,84,0.00,,BKN250,0.00,VWS V14.01,2013-07-16 06:50:00,
2013-07-16 01:51:00,68.7,63.7,30.11,South,187,0.0,0.0,84,0.00,,OVC120,0.00,VWS V14.01,2013-07-16 06:51:00,
2013-07-16 01:55:00,68.6,63.9,30.11,South,184,2.0,2.0,85,0.00,,BKN250,0.00,VWS V14.01,2013-07-16 06:55:00,
2013-07-16 01:56:00,68.6,63.9,30.11,South,184,1.0,2.0,85,0.00,,OVC120,0.00,VWS V14.01,2013-07-16 06:56:00,
2013-07-16 02:00:00,68.7,64.0,30.11,SSW,193,0.0,2.0,85,0.00,,BKN250,0.00,VWS V14.01,2013-07-16 07:00:00,
2013-07-16 02:01:00,68.7,64.0,30.12,SSW,193,0.0,0.0,85,0.00,,OVC120,0.00,VWS V14.01,2013-07-16 07:01:00,
2013-07-16 02:05:00,68.7,64.0,30.12,SSW,193,0.0,0.0,85,0.00,,BKN250,0.00,VWS V14.01,2013-07-16 07:05:00,
2013-07-16 02:06:00,68.7,64.0,30.12,SSW,193,0.0,0.0,85,0.00,,OVC120,0.00,VWS V14.01,2013-07-16 07:06:00,
2013-07-16 02:10:00,68.4,64.1,30.12,SSW,193,0.0,0.0,86,0.00,,BKN250,0.00,VWS V14.01,2013-07-16 07:10:00,
2013-07-16 02:11:00,68.4,64.1,30.12,SSW,193,0.0,0.0,86,0.00,,OVC120,0.00,VWS V14.01,2013-07-16 07:11:00,
2013-07-16 02:15:00,68.2,63.9,30.12,SSW,193,0.0,0.0,86,0.00,,BKN250,0.00,VWS V14.01,2013-07-16 07:15:00,
2013-07-16 02:16:00,68.2,63.9,30.12,SSW,193,0.0,0.0,86,0.00,,OVC120,0.00,VWS V14.01,2013-07-16 07:16:00,
2013-07-16 02:20:00,68.0,64.0,30.12,SSW,193,0.0,0.0,87,0.00,,BKN250,0.00,VWS V14.01,2013-07-16 07:20:00,
2013-07-16 02:21:00,68.0,64.0,30.12,SSW,193,0.0,0.0,87,0.00,,OVC120,0.00,VWS V14.01,2013-07-16 07:21:00,
2013-07-16 02:25:00,68.0,64.0,30.12,East,83,0.0,1.0,87,0.00,,OVC120,0.00,VWS V14.01,2013-07-16 07:25:00,
2013-07-16 02:30:00,68.0,64.0,30.12,East,84,0.0,0.0,87,0.00,,OVC120,0.00,VWS V14.01,2013-07-16 07:30:00,
2013-07-16 02:35:00,67.8,63.8,30.12,East,84,0.0,0.0,87,0.00,,BKN090,0.00,VWS V14.01,2013-07-16 07:35:00,
2013-07-16 02:40:00,67.6,63.6,30.12,East,83,0.0,0.0,87,0.00,,BKN090,0.00,VWS V14.01,2013-07-16 07:40:00,
2013-07-16 02:45:00,67.5,63.8,30.12,East,83,0.0,0.0,88,0.00,,BKN090,0.00,VWS V14.01,2013-07-16 07:45:00,
2013-07-16 02:50:00,67.5,63.8,30.12,East,84,0.0,0.0,88,0.00,,BKN090,0.00,VWS V14.01,2013-07-16 07:50:00,
2013-07-16 02:55:00,67.6,63.9,30.12,East,84,0.0,0.0,88,0.00,,BKN090,0.00,VWS V14.01,2013-07-16 07:55:00,
2013-07-16 03:00:00,67.8,63.8,30.11,East,83,0.0,0.0,87,0.00,,BKN090,0.00,VWS V14.01,2013-07-16 08:00:00,
2013-07-16 03:05:00,67.7,63.7,30.11,East,83,0.0,0.0,87,0.00,,BKN090,0.00,VWS V14.01,2013-07-16 08:05:00,
2013-07-16 03:10:00,67.5,63.8,30.11,East,84,0.0,0.0,88,0.00,,BKN090,0.00,VWS V14.01,2013-07-16 08:10:00,
2013-07-16 03:15:00,67.3,63.6,30.11,East,83,0.0,0.0,88,0.00,,BKN090,0.00,VWS V14.01,2013-07-16 08:15:00,
2013-07-16 03:20:00,67.3,63.6,30.11,East,83,0.0,0.0,88,0.00,,BKN090,0.00,VWS V14.01,2013-07-16 08:20:00,
2013-07-16 03:25:00,67.2,63.5,30.11,East,83,0.0,0.0,88,0.00,,BKN090,0.00,VWS V14.01,2013-07-16 08:25:00,
2013-07-16 03:30:00,67.2,63.8,30.11,East,84,0.0,0.0,89,0.00,,BKN090,0.00,VWS V14.01,2013-07-16 08:30:00,
2013-07-16 03:35:00,67.3,64.0,30.11,East,83,0.0,0.0,89,0.00,,BKN120,0.00,VWS V14.01,2013-07-16 08:35:00,
2013-07-16 03:40:00,67.2,63.8,30.11,East,84,0.0,0.0,89,0.00,,BKN120,0.00,VWS V14.01,2013-07-16 08:40:00,
2013-07-16 03:45:00,67.0,63.7,30.11,East,84,0.0,0.0,89,0.00,,BKN120,0.00,VWS V14.01,2013-07-16 08:45:00,
2013-07-16 03:50:00,66.9,63.6,30.11,East,83,0.0,0.0,89,0.00,,BKN120,0.00,VWS V14.01,2013-07-16 08:50:00,
2013-07-16 03:55:00,66.7,63.4,30.11,East,83,0.0,0.0,89,0.00,,BKN120,0.00,VWS V14.01,2013-07-16 08:55:00,
2013-07-16 04:00:00,66.5,63.5,30.11,East,83,0.0,0.0,90,0.00,,BKN120,0.00,VWS V14.01,2013-07-16 09:00:00,
2013-07-16 04:05:00,66.3,63.3,30.11,East,83,0.0,0.0,90,0.00,,BKN120,0.00,VWS V14.01,2013-07-16 09:05:00,
2013-07-16 04:10:00,66.1,63.1,30.11,East,83,0.0,0.0,90,0.00,,BKN120,0.00,VWS V14.01,2013-07-16 09:10:00,
2013-07-16 04:15:00,65.9,62.9,30.11,East,84,0.0,0.0,90,0.00,,BKN120,0.00,VWS V14.01,2013-07-16 09:15:00,
2013-07-16 04:20:00,65.6,62.9,30.11,East,83,0.0,0.0,91,0.00,,BKN120,0.00,VWS V14.01,2013-07-16 09:20:00,
2013-07-16 04:25:00,65.4,63.0,30.11,East,83,0.0,0.0,92,0.00,,BKN120,0.00,VWS V14.01,2013-07-16 09:25:00,
2013-07-16 04:30:00,65.4,63.0,30.11,East,84,0.0,0.0,92,0.00,,BKN120,0.00,VWS V14.01,2013-07-16 09:30:00,
2013-07-16 04:35:00,65.5,63.1,30.11,East,84,0.0,0.0,92,0.00,,SCT120,0.00,VWS V14.01,2013-07-16 09:35:00,
2013-07-16 04:40:00,65.5,63.1,30.11,East,84,0.0,0.0,92,0.00,,SCT120,0.00,VWS V14.01,2013-07-16 09:40:00,
2013-07-16 04:45:00,65.6,63.2,30.11,East,84,0.0,0.0,92,0.00,,SCT120,0.00,VWS V14.01,2013-07-16 09:45:00,
2013-07-16 04:50:00,65.7,63.3,30.11,East,84,0.0,0.0,92,0.00,,SCT120,0.00,VWS V14.01,2013-07-16 09:50:00,
2013-07-16 04:55:00,65.4,63.0,30.11,East,84,0.0,0.0,92,0.00,,SCT120,0.00,VWS V14.01,2013-07-16 09:55:00,
2013-07-16 05:00:00,65.5,63.1,30.11,East,84,0.0,0.0,92,0.00,,SCT120,0.00,VWS V14.01,2013-07-16 10:00:00,
2013-07-16 05:05:00,65.5,63.1,30.11,East,83,0.0,0.0,92,0.00,,SCT120,0.00,VWS V14.01,2013-07-16 10:05:00,
2013-07-16 05:10:00,65.4,63.0,30.12,East,83,0.0,0.0,92,0.00,,SCT120,0.00,VWS V14.01,2013-07-16 10:10:00,
2013-07-16 05:15:00,65.2,62.8,30.12,East,84,0.0,0.0,92,0.00,,SCT120,0.00,VWS V14.01,2013-07-16 10:15:00,
2013-07-16 05:20:00,64.9,62.5,30.12,East,83,0.0,0.0,92,0.00,,SCT120,0.00,VWS V14.01,2013-07-16 10:20:00,
2013-07-16 05:25:00,64.8,62.7,30.12,East,84,0.0,0.0,93,0.00,,SCT120,0.00,VWS V14.01,2013-07-16 10:25:00,
2013-07-16 05:30:00,64.7,62.6,30.12,East,84,0.0,0.0,93,0.00,,SCT120,0.00,VWS V14.01,2013-07-16 10:30:00,
2013-07-16 05:35:00,64.5,62.4,30.12,East,84,0.0,0.0,93,0.00,,SCT120,0.00,VWS V14.01,2013-07-16 10:35:00,
2013-07-16 05:40:00,64.3,62.2,30.12,East,84,0.0,0.0,93,0.00,,SCT120,0.00,VWS V14.01,2013-07-16 10:40:00,
2013-07-16 05:45:00,64.1,62.0,30.12,East,83,0.0,0.0,93,0.00,,SCT120,0.00,VWS V14.01,2013-07-16 10:45:00,
2013-07-16 05:50:00,64.4,62.6,30.12,East,84,0.0,0.0,94,0.00,,SCT120,0.00,VWS V14.01,2013-07-16 10:50:00,
2013-07-16 05:55:00,64.5,62.7,30.13,East,84,0.0,0.0,94,0.00,,SCT120,0.00,VWS V14.01,2013-07-16 10:55:00,
2013-07-16 06:00:00,64.4,62.6,30.13,East,84,0.0,0.0,94,0.00,,SCT120,0.00,VWS V14.01,2013-07-16 11:00:00,
2013-07-16 06:05:00,64.2,62.1,30.13,East,83,0.0,0.0,93,0.00,,SCT120,0.00,VWS V14.01,2013-07-16 11:05:00,
2013-07-16 06:10:00,64.2,62.4,30.13,East,83,0.0,0.0,94,0.00,,SCT120,0.00,VWS V14.01,2013-07-16 11:10:00,
2013-07-16 06:15:00,64.4,62.6,30.13,East,84,0.0,0.0,94,0.00,,SCT120,0.00,VWS V14.01,2013-07-16 11:15:00,
2013-07-16 06:20:00,64.6,62.8,30.13,East,84,0.0,0.0,94,0.00,,SCT120,0.00,VWS V14.01,2013-07-16 11:20:00,
2013-07-16 06:25:00,64.5,62.7,30.14,East,84,0.0,0.0,94,0.00,,SCT120,0.00,VWS V14.01,2013-07-16 11:25:00,
2013-07-16 06:30:00,64.5,62.7,30.14,East,84,0.0,0.0,94,0.00,,SCT120,0.00,VWS V14.01,2013-07-16 11:30:00,
2013-07-16 06:35:00,64.5,62.7,30.14,East,83,0.0,0.0,94,0.00,,BKN150,0.00,VWS V14.01,2013-07-16 11:35:00,
2013-07-16 06:40:00,64.5,62.7,30.15,East,84,0.0,0.0,94,0.00,,BKN150,0.00,VWS V14.01,2013-07-16 11:40:00,
2013-07-16 06:45:00,64.3,62.5,30.15,East,84,0.0,0.0,94,0.00,,BKN150,0.00,VWS V14.01,2013-07-16 11:45:00,
2013-07-16 06:50:00,64.4,62.6,30.15,East,84,0.0,0.0,94,0.00,,BKN150,0.00,VWS V14.01,2013-07-16 11:50:00,
2013-07-16 06:55:00,64.7,62.9,30.15,East,83,0.0,0.0,94,0.00,,BKN150,0.00,VWS V14.01,2013-07-16 11:55:00,
2013-07-16 07:00:00,65.0,63.2,30.15,East,84,0.0,0.0,94,0.00,,BKN150,0.00,VWS V14.01,2013-07-16 12:00:00,
2013-07-16 07:05:00,65.8,64.0,30.15,East,83,0.0,0.0,94,0.00,,BKN150,0.00,VWS V14.01,2013-07-16 12:05:00,
2013-07-16 07:10:00,66.1,64.0,30.15,East,84,0.0,0.0,93,0.00,,BKN150,0.00,VWS V14.01,2013-07-16 12:10:00,
2013-07-16 07:15:00,66.8,64.7,30.15,East,84,0.0,0.0,93,0.00,,BKN150,0.00,VWS V14.01,2013-07-16 12:15:00,
2013-07-16 07:20:00,67.6,64.9,30.15,East,84,0.0,0.0,91,0.00,,BKN150,0.00,VWS V14.01,2013-07-16 12:20:00,
2013-07-16 07:25:00,68.7,65.3,30.15,East,84,0.0,0.0,89,0.00,,BKN150,0.00,VWS V14.01,2013-07-16 12:25:00,
2013-07-16 07:30:00,69.5,65.5,30.15,East,84,0.0,0.0,87,0.00,,BKN150,0.00,VWS V14.01,2013-07-16 12:30:00,
2013-07-16 07:35:00,69.8,65.1,30.15,East,83,0.0,0.0,85,0.00,,BKN180,0.00,VWS V14.01,2013-07-16 12:35:00,
2013-07-16 07:40:00,70.0,65.3,30.15,East,84,0.0,0.0,85,0.00,,BKN180,0.00,VWS V14.01,2013-07-16 12:40:00,
2013-07-16 07:45:00,70.3,65.2,30.15,East,84,0.0,0.0,84,0.00,,BKN180,0.00,VWS V14.01,2013-07-16 12:45:00,
2013-07-16 07:50:00,70.8,65.4,30.15,East,83,0.0,0.0,83,0.00,,BKN180,0.00,VWS V14.01,2013-07-16 12:50:00,
2013-07-16 07:55:00,71.4,65.6,30.16,ENE,65,0.0,0.0,82,0.00,,BKN180,0.00,VWS V14.01,2013-07-16 12:55:00,
2013-07-16 08:00:00,72.0,66.2,30.16,East,101,1.0,2.0,82,0.00,,BKN180,0.00,VWS V14.01,2013-07-16 13:00:00,
2013-07-16 08:05:00,72.8,66.3,30.16,SSE,160,0.0,1.0,80,0.00,,BKN180,0.00,VWS V14.01,2013-07-16 13:05:00,
2013-07-16 08:10:00,74.1,66.4,30.16,ENE,57,2.0,2.0,77,0.00,,BKN180,0.00,VWS V14.01,2013-07-16 13:10:00,
2013-07-16 08:15:00,74.5,66.4,30.16,SE,126,0.0,1.0,76,0.00,,BKN180,0.00,VWS V14.01,2013-07-16 13:15:00,
2013-07-16 08:20:00,75.8,66.9,30.17,SSW,210,0.0,1.0,74,0.00,,BKN180,0.00,VWS V14.01,2013-07-16 13:20:00,
2013-07-16 08:25:00,76.5,67.2,30.17,SSE,160,0.0,2.0,73,0.00,,BKN180,0.00,VWS V14.01,2013-07-16 13:25:00,
2013-07-16 08:29:00,76.9,66.8,30.17,SE,146,0.0,3.0,71,0.00,,BKN180,0.00,VWS V14.01,2013-07-16 13:29:00,
2013-07-16 08:30:00,76.9,66.8,30.17,ESE,122,1.0,3.0,71,0.00,,BKN250,0.00,VWS V14.01,2013-07-16 13:30:00,
2013-07-16 08:34:00,76.7,67.0,30.17,ENE,60,1.0,3.0,72,0.00,,BKN250,0.00,VWS V14.01,2013-07-16 13:34:00,
2013-07-16 08:35:00,76.7,67.4,30.17,ENE,71,1.0,3.0,73,0.00,,BKN250,0.00,VWS V14.01,2013-07-16 13:35:00,
2013-07-16 08:39:00,77.3,67.2,30.17,South,181,1.0,1.0,71,0.00,,BKN250,0.00,VWS V14.01,2013-07-16 13:39:00,
2013-07-16 08:40:00,77.5,67.4,30.17,SSE,148,2.0,2.0,71,0.00,,BKN250,0.00,VWS V14.01,2013-07-16 13:40:00,
2013-07-16 08:44:00,77.9,66.9,30.17,SSE,152,2.0,3.0,69,0.00,,BKN250,0.00,VWS V14.01,2013-07-16 13:44:00,
2013-07-16 08:45:00,77.8,66.4,30.17,South,169,0.0,3.0,68,0.00,,BKN250,0.00,VWS V14.01,2013-07-16 13:45:00,
2013-07-16 08:49:00,77.8,66.8,30.17,SE,138,0.0,2.0,69,0.00,,BKN250,0.00,VWS V14.01,2013-07-16 13:49:00,
2013-07-16 08:50:00,77.9,66.5,30.17,ENE,77,1.0,2.0,68,0.00,,BKN250,0.00,VWS V14.01,2013-07-16 13:50:00,
2013-07-16 08:54:00,78.3,67.3,30.17,East,92,0.0,1.0,69,0.00,,BKN250,0.00,VWS V14.01,2013-07-16 13:54:00,
2013-07-16 08:55:00,78.6,67.6,30.17,North,359,1.0,1.0,69,0.00,,BKN250,0.00,VWS V14.01,2013-07-16 13:55:00,
2013-07-16 08:59:00,78.9,67.0,30.17,SE,139,1.0,4.0,67,0.00,,BKN250,0.00,VWS V14.01,2013-07-16 13:59:00,
2013-07-16 09:00:00,79.0,67.6,30.17,SSE,167,0.0,4.0,68,0.00,,BKN250,0.00,VWS V14.01,2013-07-16 14:00:00,
2013-07-16 09:04:00,79.0,66.7,30.17,ENE,75,1.0,4.0,66,0.00,,BKN250,0.00,VWS V14.01,2013-07-16 14:04:00,
2013-07-16 09:05:00,79.0,67.1,30.17,East,82,3.0,4.0,67,0.00,,BKN250,0.00,VWS V14.01,2013-07-16 14:05:00,
2013-07-16 09:09:00,79.0,67.1,30.17,NE,54,0.0,3.0,67,0.00,,BKN250,0.00,VWS V14.01,2013-07-16 14:09:00,
2013-07-16 09:10:00,79.0,66.7,30.17,SE,135,1.0,3.0,66,0.00,,BKN250,0.00,VWS V14.01,2013-07-16 14:10:00,
2013-07-16 09:14:00,79.2,67.3,30.17,SE,133,1.0,4.0,67,0.00,,BKN250,0.00,VWS V14.01,2013-07-16 14:14:00,
2013-07-16 09:15:00,79.3,67.0,30.17,SSE,150,1.0,4.0,66,0.00,,BKN250,0.00,VWS V14.01,2013-07-16 14:15:00,
2013-07-16 09:19:00,79.7,67.3,30.17,ESE,118,1.0,3.0,66,0.00,,BKN250,0.00,VWS V14.01,2013-07-16 14:19:00,
2013-07-16 09:20:00,79.7,67.3,30.17,SSW,201,3.0,3.0,66,0.00,,BKN250,0.00,VWS V14.01,2013-07-16 14:20:00,
2013-07-16 09:24:00,79.6,67.2,30.17,ESE,113,0.0,4.0,66,0.00,,BKN250,0.00,VWS V14.01,2013-07-16 14:24:00,
2013-07-16 09:25:00,79.7,67.8,30.17,ESE,113,0.0,4.0,67,0.00,,BKN250,0.00,VWS V14.01,2013-07-16 14:25:00,
2013-07-16 09:29:00,80.0,66.7,30.17,SE,141,1.0,5.0,64,0.00,,BKN250,0.00,VWS V14.01,2013-07-16 14:29:00,
2013-07-16 09:30:00,80.0,67.6,30.17,SE,141,0.0,5.0,66,0.00,,BKN250,0.00,VWS V14.01,2013-07-16 14:30:00,
2013-07-16 09:34:00,80.8,67.9,30.17,NE,56,2.0,4.0,65,0.00,,BKN250,0.00,VWS V14.01,2013-07-16 14:34:00,
2013-07-16 09:35:00,80.9,67.6,30.17,South,191,2.0,4.0,64,0.00,,BKN250,0.00,VWS V14.01,2013-07-16 14:35:00,
2013-07-16 09:39:00,80.7,67.8,30.17,SSE,148,1.0,4.0,65,0.00,,BKN250,0.00,VWS V14.01,2013-07-16 14:39:00,
2013-07-16 09:40:00,80.6,67.8,30.17,East,93,3.0,4.0,65,0.00,,BKN250,0.00,VWS V14.01,2013-07-16 14:40:00,
2013-07-16 09:44:00,80.5,67.2,30.17,ESE,113,2.0,4.0,64,0.00,,BKN250,0.00,VWS V14.01,2013-07-16 14:44:00,
2013-07-16 09:45:00,80.5,67.2,30.17,SSW,212,4.0,4.0,64,0.00,,BKN250,0.00,VWS V14.01,2013-07-16 14:45:00,
2013-07-16 09:49:00,80.6,67.8,30.17,SE,138,2.0,6.0,65,0.00,,BKN250,0.00,VWS V14.01,2013-07-16 14:49:00,
2013-07-16 09:50:00,80.7,67.8,30.17,South,183,2.0,6.0,65,0.00,,BKN250,0.00,VWS V14.01,2013-07-16 14:50:00,
2013-07-16 09:54:00,81.3,68.4,30.17,East,101,3.0,4.0,65,0.00,,BKN250,0.00,VWS V14.01,2013-07-16 14:54:00,
2013-07-16 09:55:00,81.4,68.1,30.17,South,183,1.0,4.0,64,0.00,,BKN250,0.00,VWS V14.01,2013-07-16 14:55:00,
2013-07-16 09:59:00,81.6,68.2,30.17,South,169,3.0,7.0,64,0.00,,BKN250,0.00,VWS V14.01,2013-07-16 14:59:00,
2013-07-16 10:00:00,81.6,68.2,30.17,ESE,121,4.0,7.0,64,0.00,,BKN250,0.00,VWS V14.01,2013-07-16 15:00:00,
2013-07-16 10:04:00,81.4,67.6,30.17,SE,141,1.0,6.0,63,0.00,,BKN250,0.00,VWS V14.01,2013-07-16 15:04:00,
2013-07-16 10:05:00,81.2,67.4,30.17,SSW,211,5.0,6.0,63,0.00,,BKN250,0.00,VWS V14.01,2013-07-16 15:05:00,
2013-07-16 10:09:00,81.0,67.7,30.17,East,101,4.0,10.0,64,0.00,,BKN250,0.00,VWS V14.01,2013-07-16 15:09:00,
2013-07-16 10:10:00,81.0,68.1,30.17,ESE,105,1.0,10.0,65,0.00,,BKN250,0.00,VWS V14.01,2013-07-16 15:10:00,
2013-07-16 10:14:00,81.2,67.4,30.17,ESE,115,4.0,4.0,63,0.00,,BKN250,0.00,VWS V14.01,2013-07-16 15:14:00,
2013-07-16 10:19:00,81.1,67.3,30.17,SE,139,3.0,5.0,63,0.00,,BKN250,0.00,VWS V14.01,2013-07-16 15:19:00,
2013-07-16 10:20:00,81.1,67.3,30.17,SSE,161,2.0,6.0,63,0.00,,SCT200,0.00,VWS V14.01,2013-07-16 15:20:00,
2013-07-16 10:24:00,81.3,67.5,30.17,SSE,162,1.0,5.0,63,0.00,,BKN250,0.00,VWS V14.01,2013-07-16 15:24:00,
2013-07-16 10:25:00,81.4,68.1,30.17,SSE,161,3.0,5.0,64,0.00,,SCT200,0.00,VWS V14.01,2013-07-16 15:25:00,
2013-07-16 10:29:00,81.7,67.9,30.17,ESE,120,3.0,6.0,63,0.00,,BKN250,0.00,VWS V14.01,2013-07-16 15:29:00,
2013-07-16 10:30:00,81.7,67.9,30.17,SE,136,1.0,6.0,63,0.00,,SCT200,0.00,VWS V14.01,2013-07-16 15:30:00,
2013-07-16 10:34:00,82.2,68.4,30.17,East,87,2.0,5.0,63,0.00,,BKN250,0.00,VWS V14.01,2013-07-16 15:34:00,
2013-07-16 10:35:00,82.3,68.0,30.17,ESE,116,3.0,5.0,62,0.00,,SCT200,0.00,VWS V14.01,2013-07-16 15:35:00,
2013-07-16 10:39:00,82.1,67.8,30.17,ENE,58,3.0,5.0,62,0.00,,BKN250,0.00,VWS V14.01,2013-07-16 15:39:00,
2013-07-16 10:40:00,82.0,68.2,30.17,SSE,158,2.0,5.0,63,0.00,,SCT200,0.00,VWS V14.01,2013-07-16 15:40:00,
2013-07-16 10:44:00,81.9,68.1,30.17,SE,141,3.0,8.0,63,0.00,,BKN250,0.00,VWS V14.01,2013-07-16 15:44:00,
2013-07-16 10:45:00,81.9,68.1,30.17,SE,143,2.0,8.0,63,0.00,,SCT200,0.00,VWS V14.01,2013-07-16 15:45:00,
2013-07-16 10:49:00,82.2,67.9,30.17,South,187,1.0,5.0,62,0.00,,BKN250,0.00,VWS V14.01,2013-07-16 15:49:00,
2013-07-16 10:50:00,82.3,68.0,30.17,ESE,118,2.0,5.0,62,0.00,,SCT200,0.00,VWS V14.01,2013-07-16 15:50:00,
2013-07-16 10:54:00,82.4,68.1,30.17,South,176,3.0,6.0,62,0.00,,BKN250,0.00,VWS V14.01,2013-07-16 15:54:00,
2013-07-16 10:55:00,82.5,68.2,30.17,SE,138,2.0,6.0,62,0.00,,SCT200,0.00,VWS V14.01,2013-07-16 15:55:00,
2013-07-16 10:59:00,82.8,68.5,30.17,ESE,122,2.0,7.0,62,0.00,,BKN250,0.00,VWS V14.01,2013-07-16 15:59:00,
2013-07-16 11:00:00,82.9,68.6,30.17,SSE,158,2.0,9.0,62,0.00,,SCT200,0.00,VWS V14.01,2013-07-16 16:00:00,
2013-07-16 11:04:00,83.2,68.4,30.17,SSW,194,2.0,9.0,61,0.00,,BKN250,0.00,VWS V14.01,2013-07-16 16:04:00,
2013-07-16 11:05:00,83.3,68.9,30.17,South,190,3.0,9.0,62,0.00,,SCT200,0.00,VWS V14.01,2013-07-16 16:05:00,
2013-07-16 11:09:00,83.3,68.5,30.17,South,181,2.0,6.0,61,0.00,,BKN250,0.00,VWS V14.01,2013-07-16 16:09:00,
2013-07-16 11:10:00,83.4,69.0,30.17,SSW,193,2.0,6.0,62,0.00,,SCT200,0.00,VWS V14.01,2013-07-16 16:10:00,
2013-07-16 11:14:00,83.4,69.0,30.17,ESE,116,4.0,6.0,62,0.00,,BKN250,0.00,VWS V14.01,2013-07-16 16:14:00,
2013-07-16 11:15:00,83.3,68.5,30.17,SE,129,2.0,8.0,61,0.00,,SCT200,0.00,VWS V14.01,2013-07-16 16:15:00,
2013-07-16 11:19:00,83.4,68.6,30.17,ENE,75,2.0,8.0,61,0.00,,BKN250,0.00,VWS V14.01,2013-07-16 16:19:00,
2013-07-16 11:20:00,83.6,68.7,30.18,SSE,158,4.0,8.0,61,0.00,,SCT200,0.00,VWS V14.01,2013-07-16 16:20:00,
2013-07-16 11:24:00,83.6,68.7,30.17,ESE,122,1.0,9.0,61,0.00,,BKN250,0.00,VWS V14.01,2013-07-16 16:24:00,
2013-07-16 11:25:00,83.7,68.8,30.17,SSE,165,2.0,9.0,61,0.00,,SCT200,0.00,VWS V14.01,2013-07-16 16:25:00,
2013-07-16 11:29:00,83.6,68.3,30.17,ESE,123,5.0,6.0,60,0.00,,BKN250,0.00,VWS V14.01,2013-07-16 16:29:00,
2013-07-16 11:30:00,83.3,68.5,30.17,SW,222,2.0,6.0,61,0.00,,SCT200,0.00,VWS V14.01,2013-07-16 16:30:00,
2013-07-16 11:34:00,83.0,69.1,30.17,SE,146,1.0,6.0,63,0.00,,SCT250,0.00,VWS V14.01,2013-07-16 16:34:00,
2013-07-16 11:35:00,83.1,69.2,30.17,SSW,212,1.0,6.0,63,0.00,,SCT200,0.00,VWS V14.01,2013-07-16 16:35:00,
2013-07-16 11:39:00,83.3,68.9,30.17,ENE,77,2.0,7.0,62,0.00,,SCT250,0.00,VWS V14.01,2013-07-16 16:39:00,
2013-07-16 11:40:00,83.5,69.1,30.17,ENE,70,1.0,7.0,62,0.00,,SCT200,0.00,VWS V14.01,2013-07-16 16:40:00,
2013-07-16 11:44:00,83.8,68.4,30.17,ESE,111,3.0,3.0,60,0.00,,SCT250,0.00,VWS V14.01,2013-07-16 16:44:00,
2013-07-16 11:45:00,83.8,68.4,30.17,East,80,2.0,4.0,60,0.00,,SCT200,0.00,VWS V14.01,2013-07-16 16:45:00,
2013-07-16 11:49:00,83.8,68.4,30.17,ESE,114,4.0,9.0,60,0.00,,SCT250,0.00,VWS V14.01,2013-07-16 16:49:00,
2013-07-16 11:50:00,83.8,69.4,30.17,SE,135,2.0,9.0,62,0.00,,SCT200,0.00,VWS V14.01,2013-07-16 16:50:00,
2013-07-16 11:54:00,84.2,69.8,30.17,ENE,58,3.0,7.0,62,0.00,,SCT250,0.00,VWS V14.01,2013-07-16 16:54:00,
2013-07-16 11:55:00,84.5,70.1,30.17,NE,44,2.0,7.0,62,0.00,,SCT200,0.00,VWS V14.01,2013-07-16 16:55:00,
2013-07-16 11:59:00,84.9,69.0,30.17,SSE,165,2.0,8.0,59,0.00,,SCT250,0.00,VWS V14.01,2013-07-16 16:59:00,
2013-07-16 12:00:00,84.9,69.0,30.17,SE,143,4.0,8.0,59,0.00,,SCT200,0.00,VWS V14.01,2013-07-16 17:00:00,
2013-07-16 12:04:00,84.6,68.7,30.17,SSE,161,1.0,14.0,59,0.00,,SCT250,0.00,VWS V14.01,2013-07-16 17:04:00,
2013-07-16 12:05:00,84.4,68.5,30.17,SSE,158,3.0,14.0,59,0.00,,SCT200,0.00,VWS V14.01,2013-07-16 17:05:00,
2013-07-16 12:09:00,84.3,69.4,30.17,East,99,1.0,7.0,61,0.00,,SCT250,0.00,VWS V14.01,2013-07-16 17:09:00,
2013-07-16 12:10:00,84.6,69.2,30.17,NE,45,2.0,7.0,60,0.00,,SCT200,0.00,VWS V14.01,2013-07-16 17:10:00,
2013-07-16 12:14:00,84.9,69.0,30.17,East,101,5.0,6.0,59,0.00,,SCT250,0.00,VWS V14.01,2013-07-16 17:14:00,
2013-07-16 12:15:00,84.8,68.4,30.17,SSE,154,3.0,6.0,58,0.00,,SCT200,0.00,VWS V14.01,2013-07-16 17:15:00,
2013-07-16 12:19:00,85.0,69.1,30.17,NE,49,3.0,5.0,59,0.00,,SCT250,0.00,VWS V14.01,2013-07-16 17:19:00,
2013-07-16 12:20:00,85.2,68.8,30.17,SE,134,1.0,5.0,58,0.00,,SCT200,0.00,VWS V14.01,2013-07-16 17:20:00,
2013-07-16 12:24:00,85.4,69.0,30.17,ESE,115,3.0,7.0,58,0.00,,SCT250,0.00,VWS V14.01,2013-07-16 17:24:00,
2013-07-16 12:25:00,85.5,69.1,30.17,SSW,212,5.0,9.0,58,0.00,,SCT200,0.00,VWS V14.01,2013-07-16 17:25:00,
2013-07-16 12:29:00,85.7,68.7,30.16,South,169,5.0,12.0,57,0.00,,SCT250,0.00,VWS V14.01,2013-07-16 17:29:00,
2013-07-16 12:30:00,85.8,69.3,30.17,SE,145,2.0,12.0,58,0.00,,SCT200,0.00,VWS V14.01,2013-07-16 17:30:00,
2013-07-16 12:34:00,85.8,69.3,30.17,SSE,148,3.0,8.0,58,0.00,,BKN250,0.00,VWS V14.01,2013-07-16 17:34:00,
2013-07-16 12:35:00,86.0,69.0,30.17,SSE,155,2.0,8.0,57,0.00,,SCT200,0.00,VWS V14.01,2013-07-16 17:35:00,
2013-07-16 12:39:00,86.2,69.7,30.17,East,92,3.0,8.0,58,0.00,,BKN250,0.00,VWS V14.01,2013-07-16 17:39:00,
2013-07-16 12:40:00,86.3,69.3,30.17,SE,128,3.0,8.0,57,0.00,,SCT200,0.00,VWS V14.01,2013-07-16 17:40:00,
2013-07-16 12:44:00,86.1,68.6,30.17,NE,53,2.0,7.0,56,0.00,,BKN250,0.00,VWS V14.01,2013-07-16 17:44:00,
2013-07-16 12:45:00,85.9,68.9,30.16,East,80,2.0,7.0,57,0.00,,SCT200,0.00,VWS V14.01,2013-07-16 17:45:00,
2013-07-16 12:49:00,85.8,69.3,30.16,SE,129,4.0,5.0,58,0.00,,BKN250,0.00,VWS V14.01,2013-07-16 17:49:00,
2013-07-16 12:50:00,85.9,69.4,30.16,SSE,160,6.0,13.0,58,0.00,,SCT200,0.00,VWS V14.01,2013-07-16 17:50:00,
2013-07-16 12:54:00,85.7,68.2,30.16,NE,52,4.0,10.0,56,0.00,,BKN250,0.00,VWS V14.01,2013-07-16 17:54:00,
2013-07-16 12:55:00,85.9,69.4,30.16,SSW,194,8.0,10.0,58,0.00,,SCT200,0.00,VWS V14.01,2013-07-16 17:55:00,
2013-07-16 12:59:00,86.0,68.5,30.16,SE,142,3.0,8.0,56,0.00,,BKN250,0.00,VWS V14.01,2013-07-16 17:59:00,
2013-07-16 13:00:00,86.3,68.8,30.16,SSE,152,7.0,13.0,56,0.00,,SCT200,0.00,VWS V14.01,2013-07-16 18:00:00,
2013-07-16 13:04:00,86.7,68.6,30.16,ESE,105,2.0,13.0,55,0.00,,BKN250,0.00,VWS V14.01,2013-07-16 18:04:00,
2013-07-16 13:05:00,86.7,68.1,30.16,SE,131,6.0,13.0,54,0.00,,SCT200,0.00,VWS V14.01,2013-07-16 18:05:00,
2013-07-16 13:09:00,86.7,68.6,30.16,East,86,2.0,9.0,55,0.00,,BKN250,0.00,VWS V14.01,2013-07-16 18:09:00,
2013-07-16 13:10:00,86.7,68.6,30.16,ENE,70,3.0,9.0,55,0.00,,SCT200,0.00,VWS V14.01,2013-07-16 18:10:00,
2013-07-16 13:14:00,86.6,68.5,30.16,ESE,104,4.0,7.0,55,0.00,,BKN250,0.00,VWS V14.01,2013-07-16 18:14:00,
2013-07-16 13:15:00,86.7,69.1,30.16,SSE,150,5.0,10.0,56,0.00,,SCT200,0.00,VWS V14.01,2013-07-16 18:15:00,
2013-07-16 13:19:00,86.9,67.7,30.15,SSE,150,5.0,11.0,53,0.00,,BKN250,0.00,VWS V14.01,2013-07-16 18:19:00,
2013-07-16 13:20:00,87.0,68.4,30.15,East,80,2.0,11.0,54,0.00,,SCT200,0.00,VWS V14.01,2013-07-16 18:20:00,
2013-07-16 13:24:00,87.7,68.5,30.15,South,188,8.0,8.0,53,0.00,,BKN250,0.00,VWS V14.01,2013-07-16 18:24:00,
2013-07-16 13:25:00,87.5,68.3,30.15,SSE,152,2.0,10.0,53,0.00,,SCT200,0.00,VWS V14.01,2013-07-16 18:25:00,
2013-07-16 13:29:00,87.5,68.3,30.15,ESE,110,6.0,14.0,53,0.00,,BKN250,0.00,VWS V14.01,2013-07-16 18:29:00,
2013-07-16 13:30:00,87.4,68.7,30.15,SSW,207,4.0,14.0,54,0.00,,SCT200,0.00,VWS V14.01,2013-07-16 18:30:00,
2013-07-16 13:34:00,87.7,67.9,30.15,ESE,110,5.0,7.0,52,0.00,,BKN250,0.00,VWS V14.01,2013-07-16 18:34:00,
2013-07-16 13:35:00,87.4,67.6,30.15,SSW,204,2.0,10.0,52,0.00,,SCT200,0.00,VWS V14.01,2013-07-16 18:35:00,
2013-07-16 13:39:00,87.2,68.0,30.15,South,177,1.0,5.0,53,0.00,,BKN250,0.00,VWS V14.01,2013-07-16 18:39:00,
2013-07-16 13:40:00,87.0,67.3,30.15,South,169,3.0,8.0,52,0.00,,SCT200,0.00,VWS V14.01,2013-07-16 18:40:00,
2013-07-16 13:44:00,86.6,68.5,30.15,NE,39,2.0,5.0,55,0.00,,BKN250,0.00,VWS V14.01,2013-07-16 18:44:00,
2013-07-16 13:45:00,86.8,68.2,30.15,East,83,4.0,5.0,54,0.00,,SCT200,0.00,VWS V14.01,2013-07-16 18:45:00,
2013-07-16 13:49:00,87.3,67.5,30.15,ESE,120,2.0,11.0,52,0.00,,BKN250,0.00,VWS V14.01,2013-07-16 18:49:00,
2013-07-16 13:50:00,87.4,67.1,30.15,SE,139,4.0,11.0,51,0.00,,SCT200,0.00,VWS V14.01,2013-07-16 18:50:00,
2013-07-16 13:54:00,87.5,67.7,30.14,ESE,103,2.0,12.0,52,0.00,,BKN250,0.00,VWS V14.01,2013-07-16 18:54:00,
2013-07-16 13:55:00,87.7,69.0,30.14,ESE,113,2.0,12.0,54,0.00,,SCT200,0.00,VWS V14.01,2013-07-16 18:55:00,
2013-07-16 13:59:00,87.8,68.6,30.14,South,179,6.0,6.0,53,0.00,,BKN250,0.00,VWS V14.01,2013-07-16 18:59:00,
2013-07-16 14:00:00,87.7,67.3,30.14,SE,136,4.0,12.0,51,0.00,,SCT200,0.00,VWS V14.01,2013-07-16 19:00:00,
2013-07-16 14:04:00,87.6,67.2,30.14,East,101,6.0,10.0,51,0.00,,BKN250,0.00,VWS V14.01,2013-07-16 19:04:00,
2013-07-16 14:05:00,87.4,67.6,30.14,ESE,115,5.0,10.0,52,0.00,,SCT200,0.00,VWS V14.01,2013-07-16 19:05:00,
2013-07-16 14:09:00,87.6,67.8,30.14,SE,143,5.0,8.0,52,0.00,,BKN250,0.00,VWS V14.01,2013-07-16 19:09:00,
2013-07-16 14:10:00,87.6,68.4,30.14,SSE,165,5.0,8.0,53,0.00,,SCT200,0.00,VWS V14.01,2013-07-16 19:10:00,
2013-07-16 14:14:00,87.8,68.6,30.14,SE,136,4.0,8.0,53,0.00,,BKN250,0.00,VWS V14.01,2013-07-16 19:14:00,
2013-07-16 14:15:00,87.9,68.7,30.14,ESE,118,2.0,10.0,53,0.00,,SCT200,0.00,VWS V14.01,2013-07-16 19:15:00,
2013-07-16 14:19:00,88.2,68.9,30.14,NNW,330,3.0,10.0,53,0.00,,BKN250,0.00,VWS V14.01,2013-07-16 19:19:00,
2013-07-16 14:20:00,88.1,68.3,30.14,South,186,4.0,10.0,52,0.00,,SCT200,0.00,VWS V14.01,2013-07-16 19:20:00,
2013-07-16 14:24:00,88.2,67.8,30.14,SW,214,7.0,8.0,51,0.00,,BKN250,0.00,VWS V14.01,2013-07-16 19:24:00,
2013-07-16 14:25:00,88.1,67.7,30.14,SE,132,6.0,8.0,51,0.00,,SCT200,0.00,VWS V14.01,2013-07-16 19:25:00,
2013-07-16 14:29:00,88.0,68.2,30.13,South,188,3.0,7.0,52,0.00,,BKN250,0.00,VWS V14.01,2013-07-16 19:29:00,
2013-07-16 14:30:00,87.7,67.9,30.13,SSE,166,3.0,9.0,52,0.00,,SCT200,0.00,VWS V14.01,2013-07-16 19:30:00,
2013-07-16 14:34:00,87.8,68.6,30.13,SE,126,3.0,6.0,53,0.00,,BKN250,0.00,VWS V14.01,2013-07-16 19:34:00,
2013-07-16 14:35:00,87.9,68.7,30.13,ESE,102,4.0,6.0,53,0.00,,SCT200,0.00,VWS V14.01,2013-07-16 19:35:00,
2013-07-16 14:39:00,88.4,68.6,30.13,SE,134,3.0,8.0,52,0.00,,BKN250,0.00,VWS V14.01,2013-07-16 19:39:00,
2013-07-16 14:40:00,88.5,68.1,30.13,East,98,1.0,8.0,51,0.00,,SCT200,0.00,VWS V14.01,2013-07-16 19:40:00,
2013-07-16 14:44:00,88.7,68.8,30.13,ESE,103,3.0,3.0,52,0.00,,BKN250,0.00,VWS V14.01,2013-07-16 19:44:00,
2013-07-16 14:45:00,88.6,67.6,30.13,SE,138,1.0,4.0,50,0.00,,SCT200,0.00,VWS V14.01,2013-07-16 19:45:00,
2013-07-16 14:49:00,88.1,67.7,30.13,SSE,163,4.0,4.0,51,0.00,,BKN250,0.00,VWS V14.01,2013-07-16 19:49:00,
2013-07-16 14:50:00,88.0,67.6,30.13,SSW,201,4.0,6.0,51,0.00,,SCT200,0.00,VWS V14.01,2013-07-16 19:50:00,
2013-07-16 14:54:00,88.2,67.8,30.13,SE,134,6.0,8.0,51,0.00,,BKN250,0.00,VWS V14.01,2013-07-16 19:54:00,
2013-07-16 14:55:00,88.0,67.1,30.12,South,186,6.0,8.0,50,0.00,,SCT200,0.00,VWS V14.01,2013-07-16 19:55:00,
2013-07-16 14:59:00,88.0,68.2,30.13,SSE,162,4.0,6.0,52,0.00,,BKN250,0.00,VWS V14.01,2013-07-16 19:59:00,
2013-07-16 15:00:00,88.4,68.6,30.12,SSE,165,4.0,10.0,52,0.00,,SCT200,0.00,VWS V14.01,2013-07-16 20:00:00,
2013-07-16 15:04:00,88.9,68.4,30.12,South,191,5.0,7.0,51,0.00,,BKN250,0.00,VWS V14.01,2013-07-16 20:04:00,
2013-07-16 15:05:00,88.9,68.4,30.12,SSW,195,4.0,12.0,51,0.00,,SCT200,0.00,VWS V14.01,2013-07-16 20:05:00,
2013-07-16 15:09:00,89.0,68.5,30.12,SE,129,8.0,10.0,51,0.00,,BKN250,0.00,VWS V14.01,2013-07-16 20:09:00,
2013-07-16 15:10:00,88.8,68.4,30.12,ESE,117,1.0,11.0,51,0.00,,SCT200,0.00,VWS V14.01,2013-07-16 20:10:00,
2013-07-16 15:14:00,88.7,68.3,30.12,SW,224,3.0,4.0,51,0.00,,BKN250,0.00,VWS V14.01,2013-07-16 20:14:00,
2013-07-16 15:15:00,89.1,68.6,30.12,South,181,7.0,7.0,51,0.00,,SCT200,0.00,VWS V14.01,2013-07-16 20:15:00,
2013-07-16 15:19:00,89.4,67.7,30.12,ESE,105,7.0,8.0,49,0.00,,BKN250,0.00,VWS V14.01,2013-07-16 20:19:00,
2013-07-16 15:20:00,89.2,67.0,30.12,South,172,2.0,8.0,48,0.00,,SCT200,0.00,VWS V14.01,2013-07-16 20:20:00,
2013-07-16 15:24:00,88.7,67.1,30.12,East,86,1.0,8.0,49,0.00,,BKN250,0.00,VWS V14.01,2013-07-16 20:24:00,
2013-07-16 15:25:00,88.6,67.0,30.12,SSE,148,1.0,8.0,49,0.00,,SCT200,0.00,VWS V14.01,2013-07-16 20:25:00,
2013-07-16 15:29:00,88.9,67.9,30.12,South,184,4.0,8.0,50,0.00,,BKN250,0.00,VWS V14.01,2013-07-16 20:29:00,
2013-07-16 15:30:00,89.0,66.8,30.12,SSE,160,3.0,8.0,48,0.00,,SCT200,0.00,VWS V14.01,2013-07-16 20:30:00,
2013-07-16 15:34:00,88.7,66.5,30.12,South,186,5.0,7.0,48,0.00,,BKN250,0.00,VWS V14.01,2013-07-16 20:34:00,
2013-07-16 15:35:00,88.5,66.9,30.12,ESE,117,4.0,8.0,49,0.00,,SCT200,0.00,VWS V14.01,2013-07-16 20:35:00,
2013-07-16 15:39:00,88.9,67.3,30.12,SSE,153,5.0,9.0,49,0.00,,BKN250,0.00,VWS V14.01,2013-07-16 20:39:00,
2013-07-16 15:40:00,88.8,67.2,30.12,SE,124,5.0,10.0,49,0.00,,SCT200,0.00,VWS V14.01,2013-07-16 20:40:00,
2013-07-16 15:44:00,88.4,66.8,30.12,SSE,165,5.0,9.0,49,0.00,,BKN250,0.00,VWS V14.01,2013-07-16 20:44:00,
2013-07-16 15:45:00,88.4,68.0,30.11,ESE,120,2.0,9.0,51,0.00,,SCT200,0.00,VWS V14.01,2013-07-16 20:45:00,
2013-07-16 15:49:00,88.9,69.0,30.12,SSW,195,3.0,3.0,52,0.00,,BKN250,0.00,VWS V14.01,2013-07-16 20:49:00,
2013-07-16 15:50:00,89.3,68.8,30.11,NE,39,2.0,4.0,51,0.00,,SCT200,0.00,VWS V14.01,2013-07-16 20:50:00,
2013-07-16 15:53:00,89.8,68.7,30.11,South,191,3.0,8.0,50,0.00,,BKN250,0.00,VWS V14.01,2013-07-16 20:53:00,
2013-07-16 15:55:00,89.9,67.0,30.11,SE,127,6.0,8.0,47,0.00,,SCT200,0.00,VWS V14.01,2013-07-16 20:55:00,
2013-07-16 15:58:00,89.8,68.1,30.11,SE,142,4.0,9.0,49,0.00,,BKN250,0.00,VWS V14.01,2013-07-16 20:58:00,
2013-07-16 16:00:00,90.0,68.9,30.11,South,188,4.0,9.0,50,0.00,,SCT200,0.00,VWS V14.01,2013-07-16 21:00:00,
2013-07-16 16:03:00,90.4,68.1,30.11,ENE,65,2.0,6.0,48,0.00,,BKN250,0.00,VWS V14.01,2013-07-16 21:03:00,
2013-07-16 16:05:00,90.5,68.2,30.11,ESE,108,5.0,6.0,48,0.00,,SCT200,0.00,VWS V14.01,2013-07-16 21:05:00,
2013-07-16 16:08:00,90.3,66.7,30.11,SE,127,5.0,9.0,46,0.00,,BKN250,0.00,VWS V14.01,2013-07-16 21:08:00,
2013-07-16 16:10:00,90.4,67.4,30.11,SE,146,4.0,9.0,47,0.00,,SCT200,0.00,VWS V14.01,2013-07-16 21:10:00,
2013-07-16 16:13:00,90.4,66.8,30.11,SE,142,5.0,8.0,46,0.00,,BKN250,0.00,VWS V14.01,2013-07-16 21:13:00,
2013-07-16 16:15:00,90.5,66.9,30.11,SE,143,3.0,9.0,46,0.00,,SCT200,0.00,VWS V14.01,2013-07-16 21:15:00,
2013-07-16 16:18:00,90.3,66.7,30.11,SSE,150,3.0,5.0,46,0.00,,BKN250,0.00,VWS V14.01,2013-07-16 21:18:00,
2013-07-16 16:20:00,90.2,66.6,30.11,SE,131,7.0,10.0,46,0.00,,SCT200,0.00,VWS V14.01,2013-07-16 21:20:00,
2013-07-16 16:23:00,90.3,66.7,30.11,ENE,77,3.0,7.0,46,0.00,,BKN250,0.00,VWS V14.01,2013-07-16 21:23:00,
2013-07-16 16:25:00,90.2,67.3,30.11,ESE,115,3.0,7.0,47,0.00,,SCT200,0.00,VWS V14.01,2013-07-16 21:25:00,
2013-07-16 16:28:00,90.3,68.0,30.11,South,176,8.0,12.0,48,0.00,,BKN250,0.00,VWS V14.01,2013-07-16 21:28:00,
2013-07-16 16:30:00,90.3,67.3,30.11,South,179,8.0,12.0,47,0.00,,SCT200,0.00,VWS V14.01,2013-07-16 21:30:00,
2013-07-16 16:33:00,90.3,67.3,30.11,SE,142,2.0,8.0,47,0.00,,SCT075,0.00,VWS V14.01,2013-07-16 21:33:00,
2013-07-16 16:35:00,90.5,66.9,30.11,ESE,107,5.0,10.0,46,0.00,,SCT200,0.00,VWS V14.01,2013-07-16 21:35:00,
2013-07-16 16:38:00,90.6,67.6,30.11,NE,55,1.0,5.0,47,0.00,,SCT075,0.00,VWS V14.01,2013-07-16 21:38:00,
2013-07-16 16:40:00,90.5,66.9,30.11,ESE,115,4.0,6.0,46,0.00,,SCT200,0.00,VWS V14.01,2013-07-16 21:40:00,
2013-07-16 16:43:00,90.3,67.3,30.11,NE,39,3.0,5.0,47,0.00,,SCT075,0.00,VWS V14.01,2013-07-16 21:43:00,
2013-07-16 16:45:00,90.4,67.4,30.11,SE,131,1.0,5.0,47,0.00,,SCT200,0.00,VWS V14.01,2013-07-16 21:45:00,
2013-07-16 16:48:00,90.7,66.5,30.11,SE,135,5.0,11.0,45,0.00,,SCT075,0.00,VWS V14.01,2013-07-16 21:48:00,
2013-07-16 16:50:00,90.8,67.2,30.11,ESE,123,5.0,11.0,46,0.00,,SCT200,0.00,VWS V14.01,2013-07-16 21:50:00,
2013-07-16 16:53:00,90.7,67.1,30.11,East,97,5.0,6.0,46,0.00,,SCT075,0.00,VWS V14.01,2013-07-16 21:53:00,
2013-07-16 16:55:00,90.6,67.0,30.11,SSE,159,2.0,6.0,46,0.00,,SCT200,0.00,VWS V14.01,2013-07-16 21:55:00,
2013-07-16 16:58:00,90.8,67.2,30.11,SSE,155,1.0,4.0,46,0.00,,SCT075,0.00,VWS V14.01,2013-07-16 21:58:00,
2013-07-16 17:00:00,90.8,67.2,30.11,North,354,1.0,5.0,46,0.00,,SCT200,0.00,VWS V14.01,2013-07-16 22:00:00,
2013-07-16 17:03:00,90.7,67.7,30.11,SE,128,2.0,5.0,47,0.00,,SCT075,0.00,VWS V14.01,2013-07-16 22:03:00,
2013-07-16 17:05:00,90.6,66.4,30.11,East,96,5.0,8.0,45,0.00,,SCT200,0.00,VWS V14.01,2013-07-16 22:05:00,
2013-07-16 17:08:00,90.9,67.3,30.11,SSE,153,4.0,7.0,46,0.00,,SCT075,0.00,VWS V14.01,2013-07-16 22:08:00,
2013-07-16 17:10:00,91.0,66.7,30.11,East,96,2.0,7.0,45,0.00,,SCT200,0.00,VWS V14.01,2013-07-16 22:10:00,
2013-07-16 17:13:00,90.8,66.6,30.11,SW,220,3.0,7.0,45,0.00,,SCT075,0.00,VWS V14.01,2013-07-16 22:13:00,
2013-07-16 17:15:00,90.7,67.1,30.11,ESE,114,3.0,10.0,46,0.00,,SCT200,0.00,VWS V14.01,2013-07-16 22:15:00,
2013-07-16 17:18:00,90.8,67.8,30.11,SSW,200,3.0,4.0,47,0.00,,SCT075,0.00,VWS V14.01,2013-07-16 22:18:00,
2013-07-16 17:20:00,90.8,67.8,30.11,North,8,2.0,4.0,47,0.00,,SCT200,0.00,VWS V14.01,2013-07-16 22:20:00,
2013-07-16 17:23:00,90.7,67.1,30.11,SSW,193,1.0,6.0,46,0.00,,SCT075,0.00,VWS V14.01,2013-07-16 22:23:00,
2013-07-16 17:25:00,90.9,67.9,30.11,ESE,120,5.0,9.0,47,0.00,,SCT200,0.00,VWS V14.01,2013-07-16 22:25:00,
2013-07-16 17:28:00,90.8,67.8,30.11,SSW,200,3.0,11.0,47,0.00,,SCT075,0.00,VWS V14.01,2013-07-16 22:28:00,
2013-07-16 17:30:00,90.5,67.5,30.10,SE,135,6.0,11.0,47,0.00,,SCT200,0.00,VWS V14.01,2013-07-16 22:30:00,
2013-07-16 17:33:00,90.6,67.6,30.10,ESE,112,5.0,7.0,47,0.00,,SCT055,0.00,VWS V14.01,2013-07-16 22:33:00,
2013-07-16 17:35:00,90.6,68.2,30.11,SSE,166,10.0,10.0,48,0.00,,SCT200,0.00,VWS V14.01,2013-07-16 22:35:00,
2013-07-16 17:38:00,90.3,67.3,30.11,ESE,103,4.0,10.0,47,0.00,,SCT055,0.00,VWS V14.01,2013-07-16 22:38:00,
2013-07-16 17:40:00,90.1,67.2,30.11,South,180,9.0,10.0,47,0.00,,SCT200,0.00,VWS V14.01,2013-07-16 22:40:00,
2013-07-16 17:43:00,89.8,66.9,30.11,South,188,7.0,11.0,47,0.00,,SCT055,0.00,VWS V14.01,2013-07-16 22:43:00,
2013-07-16 17:45:00,89.5,67.2,30.11,South,174,6.0,11.0,48,0.00,,SCT200,0.00,VWS V14.01,2013-07-16 22:45:00,
2013-07-16 17:48:00,89.3,67.1,30.11,SSE,148,8.0,12.0,48,0.00,,SCT055,0.00,VWS V14.01,2013-07-16 22:48:00,
2013-07-16 17:50:00,89.3,67.7,30.11,South,189,2.0,12.0,49,0.00,,SCT200,0.00,VWS V14.01,2013-07-16 22:50:00,
2013-07-16 17:53:00,89.7,68.0,30.11,East,94,4.0,6.0,49,0.00,,SCT055,0.00,VWS V14.01,2013-07-16 22:53:00,
2013-07-16 17:55:00,89.9,67.6,30.10,SW,231,4.0,7.0,48,0.00,,SCT200,0.00,VWS V14.01,2013-07-16 22:55:00,
2013-07-16 17:58:00,90.1,67.8,30.10,South,170,2.0,10.0,48,0.00,,SCT055,0.00,VWS V14.01,2013-07-16 22:58:00,
2013-07-16 18:00:00,90.4,67.4,30.11,SSE,158,5.0,10.0,47,0.00,,SCT200,0.00,VWS V14.01,2013-07-16 23:00:00,
2013-07-16 18:03:00,90.4,67.4,30.11,ESE,116,6.0,10.0,47,0.00,,SCT055,0.00,VWS V14.01,2013-07-16 23:03:00,
2013-07-16 18:05:00,90.2,67.3,30.11,ENE,72,3.0,10.0,47,0.00,,SCT200,0.00,VWS V14.01,2013-07-16 23:05:00,
2013-07-16 18:08:00,90.0,67.1,30.10,SE,127,6.0,13.0,47,0.00,,SCT055,0.00,VWS V14.01,2013-07-16 23:08:00,
2013-07-16 18:10:00,89.5,67.2,30.11,NW,321,3.0,13.0,48,0.00,,SCT200,0.00,VWS V14.01,2013-07-16 23:10:00,
2013-07-16 18:13:00,88.9,67.3,30.10,SE,129,6.0,10.0,49,0.00,,SCT055,0.00,VWS V14.01,2013-07-16 23:13:00,
2013-07-16 18:15:00,88.3,66.7,30.10,SSW,200,4.0,10.0,49,0.00,,SCT200,0.00,VWS V14.01,2013-07-16 23:15:00,
2013-07-16 18:18:00,87.9,66.9,30.10,SSE,156,8.0,11.0,50,0.00,,SCT055,0.00,VWS V14.01,2013-07-16 23:18:00,
2013-07-16 18:20:00,87.8,66.9,30.10,ESE,113,4.0,11.0,50,0.00,,SCT200,0.00,VWS V14.01,2013-07-16 23:20:00,
2013-07-16 18:23:00,88.1,67.7,30.10,SSW,201,4.0,5.0,51,0.00,,SCT055,0.00,VWS V14.01,2013-07-16 23:23:00,
2013-07-16 18:25:00,88.2,67.8,30.10,South,183,2.0,8.0,51,0.00,,SCT200,0.00,VWS V14.01,2013-07-16 23:25:00,
2013-07-16 18:28:00,88.0,67.1,30.10,South,186,7.0,10.0,50,0.00,,SCT055,0.00,VWS V14.01,2013-07-16 23:28:00,
2013-07-16 18:30:00,87.8,66.9,30.10,SSW,200,5.0,10.0,50,0.00,,SCT200,0.00,VWS V14.01,2013-07-16 23:30:00,
2013-07-16 18:33:00,87.5,67.2,30.10,SE,134,4.0,8.0,51,0.00,,SCT080,0.00,VWS V14.01,2013-07-16 23:33:00,
2013-07-16 18:35:00,87.3,67.0,30.11,ENE,67,2.0,8.0,51,0.00,,SCT200,0.00,VWS V14.01,2013-07-16 23:35:00,
2013-07-16 18:38:00,87.2,67.4,30.11,SE,129,2.0,5.0,52,0.00,,SCT080,0.00,VWS V14.01,2013-07-16 23:38:00,
2013-07-16 18:40:00,87.0,67.3,30.11,ESE,120,6.0,7.0,52,0.00,,SCT200,0.00,VWS V14.01,2013-07-16 23:40:00,
2013-07-16 18:43:00,86.4,67.8,30.11,North,359,3.0,9.0,54,0.00,,SCT080,0.00,VWS V14.01,2013-07-16 23:43:00,
2013-07-16 18:45:00,85.3,67.3,30.11,SE,142,3.0,9.0,55,0.00,,SCT200,0.00,VWS V14.01,2013-07-16 23:45:00,
2013-07-16 18:48:00,84.6,67.2,30.11,NE,48,1.0,7.0,56,0.00,,SCT080,0.00,VWS V14.01,2013-07-16 23:48:00,
2013-07-16 18:50:00,84.3,65.9,30.11,ESE,115,3.0,8.0,54,0.00,,SCT200,0.00,VWS V14.01,2013-07-16 23:50:00,
2013-07-16 18:53:00,84.3,66.9,30.11,South,181,1.0,6.0,56,0.00,,SCT080,0.00,VWS V14.01,2013-07-16 23:53:00,
2013-07-16 18:55:00,84.4,67.0,30.11,SSE,160,3.0,7.0,56,0.00,,SCT200,0.00,VWS V14.01,2013-07-16 23:55:00,
2013-07-16 18:58:00,84.3,67.4,30.11,East,98,2.0,6.0,57,0.00,,SCT080,0.00,VWS V14.01,2013-07-16 23:58:00,
2013-07-16 19:00:00,84.5,67.6,30.11,East,101,0.0,6.0,57,0.00,,SCT200,0.00,VWS V14.01,2013-07-17 00:00:00,
2013-07-16 19:03:00,84.8,67.9,30.11,North,353,2.0,2.0,57,0.00,,SCT080,0.00,VWS V14.01,2013-07-17 00:03:00,
2013-07-16 19:05:00,84.8,68.4,30.11,East,96,1.0,3.0,58,0.00,,SCT200,0.00,VWS V14.01,2013-07-17 00:05:00,
2013-07-16 19:08:00,84.9,68.5,30.10,South,176,1.0,2.0,58,0.00,,SHRA,0.00,VWS V14.01,2013-07-17 00:08:00,
2013-07-16 19:10:00,85.1,68.7,30.10,South,175,0.0,2.0,58,0.00,,SCT200,0.00,VWS V14.01,2013-07-17 00:10:00,
2013-07-16 19:13:00,85.3,68.9,30.11,SSE,149,0.0,1.0,58,0.00,,SHRA,0.00,VWS V14.01,2013-07-17 00:13:00,
2013-07-16 19:18:00,85.8,69.3,30.11,South,180,0.0,1.0,58,0.00,,SCT200,0.00,VWS V14.01,2013-07-17 00:18:00,
2013-07-16 19:23:00,86.1,69.1,30.11,SSE,159,1.0,1.0,57,0.00,,SCT200,0.00,VWS V14.01,2013-07-17 00:23:00,
2013-07-16 19:28:00,86.3,68.8,30.11,East,101,0.0,2.0,56,0.00,,SCT200,0.00,VWS V14.01,2013-07-17 00:28:00,
2013-07-16 19:33:00,86.5,67.9,30.11,West,259,1.0,2.0,54,0.00,,SCT200,0.00,VWS V14.01,2013-07-17 00:33:00,
2013-07-16 19:38:00,86.6,68.5,30.11,SSE,148,0.0,1.0,55,0.00,,SCT200,0.00,VWS V14.01,2013-07-17 00:38:00,
2013-07-16 19:43:00,86.8,68.7,30.12,South,170,2.0,4.0,55,0.00,,SCT200,0.00,VWS V14.01,2013-07-17 00:43:00,
2013-07-16 19:48:00,86.8,68.7,30.12,SE,132,1.0,2.0,55,0.00,,SCT200,0.00,VWS V14.01,2013-07-17 00:48:00,
2013-07-16 19:53:00,86.9,68.8,30.11,NNE,30,2.0,2.0,55,0.00,,SCT200,0.00,VWS V14.01,2013-07-17 00:53:00,
2013-07-16 19:58:00,86.7,68.6,30.11,SSE,155,1.0,3.0,55,0.00,,SCT200,0.00,VWS V14.01,2013-07-17 00:58:00,
2013-07-16 20:03:00,86.2,68.7,30.11,ESE,110,0.0,2.0,56,0.00,,SCT200,0.00,VWS V14.01,2013-07-17 01:03:00,
2013-07-16 20:08:00,85.7,68.2,30.12,South,181,2.0,3.0,56,0.00,,SCT200,0.00,VWS V14.01,2013-07-17 01:08:00,
2013-07-16 20:13:00,85.3,68.3,30.11,SSW,198,2.0,3.0,57,0.00,,SCT200,0.00,VWS V14.01,2013-07-17 01:13:00,
2013-07-16 20:18:00,84.9,68.0,30.12,SE,146,2.0,9.0,57,0.00,,SCT200,0.00,VWS V14.01,2013-07-17 01:18:00,
2013-07-16 20:23:00,84.4,68.0,30.12,SE,127,2.0,5.0,58,0.00,,SCT200,0.00,VWS V14.01,2013-07-17 01:23:00,
2013-07-16 20:28:00,84.1,68.2,30.12,South,191,1.0,2.0,59,0.00,,SCT200,0.00,VWS V14.01,2013-07-17 01:28:00,
2013-07-16 20:33:00,83.7,68.3,30.12,SW,217,1.0,1.0,60,0.00,,SCT200,0.00,VWS V14.01,2013-07-17 01:33:00,
2013-07-16 20:38:00,83.4,68.1,30.12,South,186,2.0,3.0,60,0.00,,SCT200,0.00,VWS V14.01,2013-07-17 01:38:00,
2013-07-16 20:43:00,83.2,68.4,30.13,South,190,2.0,2.0,61,0.00,,SCT200,0.00,VWS V14.01,2013-07-17 01:43:00,
2013-07-16 20:48:00,82.9,68.6,30.13,South,174,1.0,1.0,62,0.00,,SCT200,0.00,VWS V14.01,2013-07-17 01:48:00,
2013-07-16 20:53:00,82.6,68.3,30.13,SSE,150,1.0,1.0,62,0.00,,SCT200,0.00,VWS V14.01,2013-07-17 01:53:00,
2013-07-16 20:58:00,82.5,68.2,30.13,South,175,1.0,2.0,62,0.00,,SCT200,0.00,VWS V14.01,2013-07-17 01:58:00,
2013-07-16 21:03:00,82.4,68.1,30.13,SSE,159,2.0,3.0,62,0.00,,SCT200,0.00,VWS V14.01,2013-07-17 02:03:00,
2013-07-16 21:08:00,82.3,68.0,30.13,SSE,159,1.0,2.0,62,0.00,,SCT200,0.00,VWS V14.01,2013-07-17 02:08:00,
2013-07-16 21:13:00,82.2,67.9,30.14,ESE,123,3.0,3.0,62,0.00,,SCT200,0.00,VWS V14.01,2013-07-17 02:13:00,
2013-07-16 21:18:00,82.1,67.8,30.14,South,174,2.0,2.0,62,0.00,,SCT200,0.00,VWS V14.01,2013-07-17 02:18:00,
2013-07-16 21:23:00,82.0,67.7,30.14,WSW,255,3.0,3.0,62,0.00,,SCT200,0.00,VWS V14.01,2013-07-17 02:23:00,
2013-07-16 21:28:00,81.9,68.1,30.14,ESE,116,2.0,2.0,63,0.00,,SCT200,0.00,VWS V14.01,2013-07-17 02:28:00,
2013-07-16 21:33:00,81.8,68.0,30.15,South,188,2.0,3.0,63,0.00,,BKN200,0.00,VWS V14.01,2013-07-17 02:33:00,
2013-07-16 21:38:00,81.7,67.9,30.15,SSW,207,0.0,2.0,63,0.00,,BKN200,0.00,VWS V14.01,2013-07-17 02:38:00,
2013-07-16 21:43:00,81.0,68.1,30.16,South,177,20.0,20.0,65,0.00,,BKN200,0.00,VWS V14.01,2013-07-17 02:43:00,
2013-07-16 21:48:00,79.8,68.3,30.17,NNW,346,2.0,13.0,68,0.00,,BKN200,0.00,VWS V14.01,2013-07-17 02:48:00,
2013-07-16 21:53:00,78.6,68.0,30.17,SSE,158,7.0,17.0,70,0.00,,BKN200,0.00,VWS V14.01,2013-07-17 02:53:00,
2013-07-16 21:58:00,77.7,68.0,30.18,West,278,6.0,9.0,72,0.00,,BKN200,0.00,VWS V14.01,2013-07-17 02:58:00,
2013-07-16 22:03:00,77.0,68.1,30.19,SSE,150,8.0,9.0,74,0.00,,BKN200,0.00,VWS V14.01,2013-07-17 03:03:00,
2013-07-16 22:08:00,75.8,68.8,30.18,SSE,161,2.0,5.0,79,0.12,,BKN200,0.12,VWS V14.01,2013-07-17 03:08:00,
2013-07-16 22:13:00,74.5,68.3,30.19,SSW,195,1.0,4.0,81,0.12,,BKN200,0.12,VWS V14.01,2013-07-17 03:13:00,
2013-07-16 22:17:00,73.8,68.3,30.19,SSW,195,1.0,3.0,83,0.12,,BKN200,0.12,VWS V14.01,2013-07-17 03:17:00,
2013-07-16 22:22:00,73.3,68.5,30.19,SW,226,2.0,3.0,85,0.12,,BKN200,0.12,VWS V14.01,2013-07-17 03:22:00,
2013-07-16 22:27:00,73.0,68.2,30.19,SW,226,6.0,6.0,85,0.12,,BKN200,0.12,VWS V14.01,2013-07-17 03:27:00,
2013-07-16 22:32:00,73.0,67.9,30.20,South,177,4.0,8.0,84,0.12,,BKN200,0.12,VWS V14.01,2013-07-17 03:32:00,
2013-07-16 22:37:00,72.9,67.8,30.20,South,178,1.0,4.0,84,0.12,,BKN200,0.12,VWS V14.01,2013-07-17 03:37:00,
2013-07-16 22:42:00,72.7,67.9,30.20,South,186,3.0,5.0,85,0.12,,BKN200,0.12,VWS V14.01,2013-07-17 03:42:00,
2013-07-16 22:47:00,72.6,67.8,30.20,SSE,162,5.0,5.0,85,0.12,,BKN200,0.12,VWS V14.01,2013-07-17 03:47:00,
2013-07-16 22:52:00,72.4,67.6,30.20,SSW,204,2.0,5.0,85,0.12,,BKN200,0.12,VWS V14.01,2013-07-17 03:52:00,
2013-07-16 22:57:00,72.3,67.5,30.20,SSE,154,1.0,2.0,85,0.12,,BKN200,0.12,VWS V14.01,2013-07-17 03:57:00,
2013-07-16 23:01:00,72.1,67.7,30.20,WSW,249,1.0,3.0,86,0.12,,BKN200,0.12,VWS V14.01,2013-07-17 04:01:00,
2013-07-16 23:06:00,71.8,67.7,30.20,SW,217,0.0,0.0,87,0.04,,BKN200,0.12,VWS V14.01,2013-07-17 04:06:00,
2013-07-16 23:11:00,71.7,67.6,30.20,WSW,242,0.0,0.0,87,0.00,,BKN200,0.12,VWS V14.01,2013-07-17 04:11:00,
2013-07-16 23:16:00,71.5,67.4,30.19,WSW,241,0.0,1.0,87,0.00,,BKN200,0.12,VWS V14.01,2013-07-17 04:16:00,
2013-07-16 23:21:00,71.3,67.2,30.20,South,184,0.0,0.0,87,0.00,,BKN200,0.12,VWS V14.01,2013-07-17 04:21:00,
2013-07-16 23:26:00,71.3,67.2,30.20,South,173,0.0,0.0,87,0.00,,BKN200,0.12,VWS V14.01,2013-07-17 04:26:00,
2013-07-16 23:31:00,71.3,67.2,30.20,SSW,195,0.0,0.0,87,0.00,,BKN200,0.12,VWS V14.01,2013-07-17 04:31:00,
2013-07-16 23:36:00,71.2,67.5,30.20,SW,235,0.0,0.0,88,0.00,,BKN180,0.12,VWS V14.01,2013-07-17 04:36:00,
2013-07-16 23:41:00,71.0,67.6,30.20,SW,235,0.0,0.0,89,0.00,,BKN180,0.12,VWS V14.01,2013-07-17 04:41:00,
2013-07-16 23:46:00,70.8,67.7,30.20,SW,235,0.0,0.0,90,0.00,,BKN180,0.12,VWS V14.01,2013-07-17 04:46:00,
2013-07-16 23:51:00,70.6,67.5,30.20,SW,235,0.0,0.0,90,0.00,,BKN180,0.12,VWS V14.01,2013-07-17 04:51:00,
2013-07-16 23:55:00,70.5,67.4,30.20,SW,235,0.0,0.0,90,0.00,,BKN180,0.12,VWS V14.01,2013-07-17 04:55:00,
2013-07-16 23:59:00,70.5,67.4,30.20,SW,235,0.0,0.0,90,0.00,,BKN180,0.12,VWS V14.01,2013-07-17 04:59:00,